Total_Precipitation_Accumulation
2.53 2.37 4.11 4.50 4.05 3.68 3.53 3.48 3.39 3.41 3.52 3.60 3.40 3.21 3.06 3.00 2.93 2.81 2.56 2.50 2.53 2.65 2.65 2.53 2.62 2.62 2.51 2.38 2.30 2.35 2.49 2.57 2.64 2.55 2.69 2.99 3.04 3.39 3.85 4.01 3.97 4.09 3.79
2.05 2.23 3.89 4.20 3.71 3.35 3.28 3.35 3.42 3.48 3.62 3.58 3.43 3.32 3.17 3.10 2.96 2.81 2.51 2.40 2.46 2.45 2.30 2.36 2.47 2.39 2.37 2.54 2.69 2.73 2.70 2.60 2.61 2.70 2.91 3.16 3.20 3.37 3.69 4.05 3.96 4.29 4.10
1.91 2.02 3.00 3.84 3.50 3.16 3.12 3.31 3.62 3.47 3.62 3.49 3.33 3.25 3.16 3.02 2.92 2.87 2.57 2.48 2.58 2.42 2.20 2.25 2.42 2.36 2.28 2.34 2.43 2.64 2.65 2.66 2.77 3.00 3.40 4.06 3.38 3.23 3.55 3.84 3.87 3.83 3.93
1.69 1.80 2.48 3.64 3.35 3.23 3.28 3.49 3.61 3.54 3.66 3.40 3.22 3.04 2.99 2.97 3.09 3.09 3.10 3.03 2.85 2.59 2.38 2.28 2.41 2.34 2.09 2.14 2.33 2.39 2.36 2.49 2.71 2.96 3.27 3.82 3.65 3.31 3.66 4.07 3.93 3.56 3.72
1.58 1.72 2.71 3.64 3.37 3.24 3.28 3.43 3.55 3.69 3.73 3.43 3.10 2.83 2.73 2.88 3.32 3.46 3.38 3.15 2.84 2.61 2.36 2.23 2.31 2.33 2.10 2.01 2.14 2.16 2.19 2.31 2.52 2.37 2.78 3.63 4.11 3.93 3.54 3.89 3.94 3.57 3.52
1.78 1.80 2.68 3.60 3.52 3.35 3.26 3.36 3.54 3.61 3.69 3.56 3.19 2.84 2.76 2.83 2.91 2.99 3.07 2.94 2.71 2.53 2.33 2.33 2.27 2.23 2.20 2.07 2.04 2.09 2.12 2.19 2.03 2.19 2.76 3.34 3.88 3.74 3.24 3.36 3.75 3.59 3.51
1.71 1.81 2.38 3.29 3.36 3.24 3.21 3.47 3.66 3.52 3.46 3.42 3.22 2.88 2.82 2.82 2.81 2.94 3.01 2.96 2.74 2.63 2.45 2.41 2.28 2.18 2.08 2.06 2.03 1.99 2.01 1.75 1.55 2.05 2.64 3.21 3.50 3.53 3.33 3.45 3.82 3.56 3.62
1.69 1.71 2.18 2.97 3.23 3.16 3.26 3.49 3.56 3.46 3.35 3.14 2.87 2.71 2.69 2.81 2.81 2.92 2.97 2.89 2.67 2.66 2.51 2.30 2.17 2.06 1.99 2.00 2.01 1.98 1.90 1.40 1.17 1.65 2.32 3.09 3.71 3.76 3.50 3.44 3.74 3.63 3.68
1.90 1.92 2.28 2.72 2.92 3.35 3.53 3.49 3.48 3.46 3.30 3.00 2.64 2.59 2.64 2.77 2.68 2.74 2.83 2.75 2.49 2.44 2.33 2.15 1.99 1.88 1.91 1.96 2.01 1.96 1.79 1.40 1.25 1.66 1.80 2.65 3.51 3.71 3.45 3.40 3.62 3.66 3.80
2.01 2.01 2.16 2.40 2.49 2.82 3.15 3.47 3.54 3.39 3.26 3.05 2.64 2.52 2.61 2.73 2.75 2.71 2.51 2.58 2.54 2.44 2.35 2.14 1.97 1.89 1.94 1.99 1.98 1.83 1.64 1.35 1.31 1.45 1.98 2.63 3.61 3.79 3.55 3.54 3.62 3.62 3.69
1.88 1.82 1.95 2.11 2.21 2.46 2.79 3.07 3.32 3.17 3.05 2.83 2.50 2.40 2.38 2.30 2.14 2.25 2.23 2.70 2.70 2.60 2.43 2.29 2.15 2.03 1.95 1.88 1.85 1.61 1.30 1.26 1.49 1.66 2.26 3.35 4.18 4.23 3.96 3.73 3.72 3.68 3.58
1.89 1.78 1.79 1.93 2.01 2.11 2.31 2.91 2.96 2.47 2.26 2.06 2.18 2.14 2.08 2.08 1.95 1.64 1.92 2.46 2.62 2.70 2.46 2.23 2.17 1.89 1.52 1.40 1.43 1.28 1.12 1.21 1.40 1.64 2.33 3.71 4.33 4.34 3.95 3.66 3.75 3.77 3.60
1.67 1.61 1.63 1.76 1.70 1.67 1.92 2.29 2.50 2.43 2.30 2.04 1.89 1.84 1.94 1.91 1.75 1.56 1.73 1.92 1.92 1.94 1.91 1.87 1.66 1.35 1.22 1.30 1.30 1.12 1.05 1.19 1.38 1.57 2.40 3.73 4.43 4.40 3.91 3.65 3.62 3.50 3.37
1.47 1.42 1.48 1.51 1.46 1.40 1.51 1.66 1.73 1.93 1.96 1.87 1.64 1.45 1.55 1.72 1.65 1.45 1.48 1.57 1.60 1.58 1.69 1.68 1.56 1.39 1.30 1.31 1.26 1.23 1.23 1.33 1.39 1.59 2.47 3.59 4.62 4.72 4.46 4.21 3.87 3.63 3.41
1.43 1.40 1.44 1.40 1.37 1.35 1.44 1.52 1.42 1.60 1.72 1.72 1.66 1.44 1.37 1.43 1.47 1.39 1.25 1.38 1.45 1.49 1.47 1.45 1.41 1.42 1.47 1.44 1.39 1.38 1.38 1.38 1.39 1.52 2.04 2.91 4.13 4.96 5.14 5.00 4.32 3.88 3.58
1.28 1.37 1.41 1.50 1.52 1.37 1.30 1.34 1.33 1.36 1.50 1.46 1.51 1.45 1.39 1.38 1.37 1.37 1.33 1.40 1.48 1.53 1.49 1.40 1.33 1.44 1.49 1.52 1.47 1.38 1.33 1.23 1.30 1.50 1.84 2.18 2.61 3.43 4.53 4.95 4.63 4.29 3.99
1.18 1.18 1.24 1.39 1.46 1.35 1.33 1.34 1.31 1.39 1.46 1.45 1.40 1.31 1.40 1.37 1.34 1.35 1.38 1.42 1.44 1.53 1.59 1.60 1.52 1.53 1.54 1.65 1.67 1.46 1.36 1.28 1.27 1.44 1.68 1.93 1.86 2.13 3.14 4.13 4.52 4.33 4.17
1.08 1.07 1.10 1.06 1.19 1.29 1.38 1.45 1.51 1.55 1.54 1.53 1.40 1.30 1.27 1.26 1.27 1.33 1.36 1.41 1.47 1.46 1.54 1.68 1.69 1.72 1.72 1.79 1.78 1.56 1.38 1.46 1.35 1.39 1.62 1.72 1.79 1.82 2.20 2.68 3.14 3.57 4.04
1.11 1.11 1.16 1.15 1.19 1.31 1.39 1.53 1.63 1.73 1.78 1.83 1.69 1.66 1.56 1.43 1.43 1.51 1.56 1.56 1.57 1.64 1.66 1.59 1.63 1.77 1.87 1.87 1.71 1.63 1.52 1.54 1.52 1.49 1.71 1.75 1.79 1.84 1.94 1.92 2.11 2.55 3.30
1.21 1.21 1.26 1.38 1.44 1.56 1.73 1.97 2.19 2.32 2.39 2.44 2.37 2.23 2.04 1.79 1.72 1.86 1.87 1.74 1.79 1.91 2.02 1.92 1.99 1.90 1.81 1.88 1.67 1.64 1.64 1.59 1.55 1.64 1.71 1.80 1.96 1.86 1.87 1.85 1.92 1.90 2.35
1.26 1.23 1.22 1.39 1.52 1.61 1.86 2.15 2.64 2.92 2.98 2.80 2.75 2.64 2.40 2.15 2.11 2.27 2.26 2.23 2.22 2.23 2.22 2.17 2.38 2.28 1.99 1.89 2.11 2.11 1.91 1.70 1.62 1.61 1.66 1.91 2.04 2.00 2.13 2.09 1.99 1.86 1.79
1.10 1.14 1.32 1.47 1.57 1.64 1.87 2.17 2.52 2.94 3.05 2.97 2.80 2.69 2.56 2.39 2.34 2.36 2.59 2.67 2.61 2.80 2.82 2.58 2.71 2.74 2.35 2.10 2.43 2.81 2.53 2.27 1.77 1.66 1.81 1.88 2.00 2.16 2.29 2.16 1.95 1.86 1.83
1.05 1.02 1.16 1.42 1.65 1.92 2.15 2.43 2.60 2.88 2.99 2.99 2.83 2.74 2.71 2.59 2.46 2.55 2.65 2.80 2.80 2.87 3.07 3.19 3.09 3.19 2.96 2.50 2.38 2.79 2.77 2.63 2.38 1.98 1.90 1.99 2.13 2.22 2.34 2.33 2.12 1.91 1.84
0.98 0.96 1.06 1.25 1.56 1.99 2.28 2.47 2.68 3.02 3.13 2.99 2.89 2.78 2.78 2.76 2.72 2.84 2.83 2.87 2.89 2.91 3.00 3.17 3.16 3.37 3.49 3.05 2.67 2.41 2.25 2.27 2.50 2.36 2.08 2.03 2.19 2.19 2.19 2.20 2.27 2.17 1.97
1.01 1.03 1.09 1.33 1.67 2.06 2.21 2.40 2.70 2.85 2.96 3.07 2.94 2.86 2.82 2.86 2.87 2.92 2.96 3.07 3.04 3.00 2.91 3.11 3.23 3.38 3.32 3.27 3.14 2.95 2.78 2.52 2.17 2.34 2.39 2.24 2.13 2.01 2.06 2.15 2.32 2.38 2.26
1.07 1.16 1.28 1.46 1.71 2.04 2.22 2.43 2.51 2.64 2.81 2.90 2.94 2.86 2.82 2.84 2.95 2.81 2.72 2.89 2.93 2.92 2.86 3.00 3.14 3.31 3.32 3.36 3.29 3.00 3.02 2.94 2.58 2.55 2.38 2.22 2.28 2.10 2.00 2.05 2.11 2.13 2.26